Wind_Speed
60 60 60 62 62 66 67 67 67 64 62 60 63 59 59 61 65 68 70 74 76 77 78 79 80 80 79
61 59 67 65 60 56 59 61 60 63 63 61 62 63 67 69 71 73 75 77 78 78 79 80 80 82 83
54 56 55 57 59 60 58 56 56 58 61 63 65 67 71 73 75 78 82 84 85 86 87 87 88 89 90
58 58 60 59 52 47 50 53 56 61 64 67 70 74 78 80 83 86 89 91 91 89 85 81 77 73 70
54 53 43 44 47 51 55 59 64 68 70 72 74 79 83 84 86 87 83 76 69 62 53 48 46 48 52
43 40 44 47 51 54 59 60 63 68 66 70 71 65 62 58 57 54 49 44 42 39 37 40 41 44 49
40 44 49 53 56 59 65 63 60 57 52 45 48 50 52 52 51 48 43 37 36 36 36 37 37 41 43
45 48 53 55 58 61 61 54 47 45 43 44 50 47 44 42 38 38 37 34 32 34 34 35 39 43 46
49 52 53 55 58 56 48 43 41 42 42 46 47 38 37 39 40 38 33 30 33 35 37 40 41 44 46
50 51 54 56 53 45 41 41 42 42 40 43 43 35 31 38 38 35 34 35 37 39 40 41 44 44 41
53 55 58 52 45 41 41 42 43 42 39 38 40 36 34 33 35 36 35 38 40 40 40 41 42 38 32
55 55 49 43 41 41 41 42 41 39 38 37 38 36 33 32 32 35 36 38 38 37 41 40 37 31 23
54 49 43 41 41 42 42 39 38 37 37 37 38 38 37 34 31 33 33 36 40 38 33 33 30 25 20
53 45 43 41 40 41 39 37 35 36 37 36 37 37 38 39 36 33 34 32 33 32 25 28 27 25 25
45 43 40 37 39 39 37 35 34 34 35 37 37 37 38 40 36 35 32 32 29 25 23 25 30 25 26
40 37 34 34 37 37 35 34 33 34 36 38 37 37 37 39 42 38 35 33 30 28 27 25 31 34 28
33 30 31 34 36 35 35 35 35 35 36 38 37 37 34 35 36 42 35 31 27 30 30 29 28 34 32
Wind_Direction
274 283 280 289 289 286 286 285 285 286 285 288 286 286 283 279 279 279 277 279 280 279 277 276 275 273 272
277 277 282 287 288 285 288 292 286 285 288 289 287 286 284 282 281 282 281 280 278 277 276 276 274 272 271
282 287 291 287 286 289 290 290 290 291 291 290 289 288 285 284 282 282 280 279 278 277 277 277 277 278 276
282 285 290 288 289 297 298 295 294 294 293 292 291 289 287 285 283 280 278 278 279 281 282 280 278 277 275
280 284 292 301 299 298 297 294 293 295 296 293 294 289 285 284 283 284 285 285 283 281 279 277 275 276 276
289 297 298 302 301 301 303 306 303 302 299 291 292 294 293 290 288 288 290 289 287 283 279 278 278 277 278
294 298 301 303 303 301 310 312 307 303 303 305 305 303 298 292 291 293 293 290 287 284 281 281 276 281 283
299 299 301 301 305 309 316 314 308 307 309 311 309 303 297 292 294 294 292 289 287 285 280 279 281 286 288
300 302 306 308 312 315 312 308 309 310 312 315 313 303 295 294 297 296 294 293 295 292 284 283 286 288 289
303 308 312 315 315 310 308 306 305 306 312 320 320 306 295 298 297 296 298 301 299 295 293 292 292 294 289
308 312 315 314 308 303 302 301 303 305 308 318 323 313 301 296 294 293 297 299 300 299 300 299 299 296 295
310 311 311 302 297 299 301 304 305 304 306 314 324 322 309 297 291 290 295 297 300 303 304 302 301 309 308
310 307 298 294 297 301 303 305 303 303 307 311 321 329 323 310 300 297 295 302 303 305 303 301 308 314 304
307 296 291 292 298 300 303 304 302 305 306 310 317 325 328 321 309 304 301 301 301 300 300 298 302 301 300
296 289 289 293 299 300 302 302 302 303 306 309 314 319 325 324 317 307 305 310 311 305 303 302 302 306 304
288 288 291 298 301 300 300 300 301 302 303 305 310 314 322 325 321 317 322 323 319 313 311 312 308 308 308
288 287 294 301 301 299 299 300 301 302 303 304 307 310 316 323 325 316 320 319 316 312 313 312 307 304 309
Height
5668 5662 5659 5654 5652 5649 5645 5642 5638 5635 5633 5630 5627 5624 5622 5619 5617 5615 5613 5610 5606 5603 5600 5598 5595 5594 5593
5651 5648 5644 5641 5637 5633 5629 5626 5622 5619 5615 5612 5609 5607 5603 5599 5596 5592 5589 5585 5581 5578 5575 5574 5570 5567 5565
5636 5633 5629 5626 5623 5618 5614 5609 5606 5602 5598 5594 5590 5586 5581 5577 5572 5569 5564 5560 5557 5552 5548 5545 5542 5538 5534
5623 5621 5616 5611 5608 5603 5599 5595 5590 5584 5579 5575 5570 5563 5557 5551 5546 5540 5534 5530 5526 5523 5519 5515 5511 5506 5502
5611 5607 5603 5599 5595 5590 5585 5579 5571 5566 5561 5552 5548 5538 5529 5522 5516 5511 5507 5504 5501 5497 5494 5491 5488 5485 5483
5598 5595 5591 5586 5581 5573 5567 5560 5553 5545 5539 5526 5522 5512 5504 5498 5493 5490 5488 5485 5483 5480 5477 5475 5473 5470 5467
5587 5582 5577 5571 5565 5558 5550 5541 5532 5525 5518 5508 5502 5497 5489 5482 5479 5477 5475 5471 5469 5467 5464 5462 5459 5456 5453
5574 5569 5564 5558 5550 5541 5532 5523 5515 5509 5505 5500 5490 5484 5476 5469 5467 5465 5463 5460 5457 5455 5452 5449 5447 5443 5439
5562 5556 5550 5542 5533 5524 5517 5510 5504 5498 5495 5487 5478 5475 5465 5459 5456 5453 5450 5448 5446 5443 5440 5436 5433 5430 5425
5549 5541 5534 5526 5518 5511 5504 5499 5496 5490 5488 5478 5467 5463 5460 5449 5445 5441 5439 5436 5433 5429 5425 5422 5418 5414 5409
5534 5528 5520 5512 5506 5500 5496 5490 5485 5479 5476 5471 5461 5454 5448 5444 5436 5432 5429 5425 5420 5416 5412 5407 5403 5398 5395
5521 5513 5506 5501 5497 5492 5487 5481 5475 5470 5464 5460 5454 5445 5439 5435 5430 5423 5419 5414 5409 5405 5399 5394 5390 5387 5383
5506 5500 5494 5490 5486 5482 5476 5471 5465 5459 5454 5449 5443 5436 5429 5424 5420 5415 5411 5405 5396 5394 5390 5384 5381 5377 5375
5493 5486 5482 5479 5475 5471 5466 5461 5456 5450 5443 5439 5434 5428 5422 5414 5408 5405 5400 5397 5392 5385 5382 5376 5372 5369 5366
5478 5474 5471 5468 5465 5460 5456 5452 5447 5442 5436 5430 5424 5420 5414 5406 5400 5394 5392 5387 5381 5377 5373 5369 5362 5362 5358
5465 5462 5460 5457 5454 5450 5446 5442 5438 5433 5428 5422 5417 5412 5406 5399 5387 5383 5381 5375 5370 5366 5362 5361 5354 5348 5349
5454 5453 5451 5448 5444 5440 5436 5432 5428 5424 5418 5412 5408 5403 5399 5395 5385 5370 5373 5369 5366 5359 5355 5351 5348 5341 5339